Date String (YYYY-MM-DD hh:mm:ss) UTC,Instrument flags,Ambient pressure (hPa),Sample flow (lpm),Bypass flow (lpm),Sample temperature (°C),Ambient temperature (°C),ASC tube jacket temperature (°C),LED temperature (°C),Box temperature (°C),Sample RH (%),Span deviation,Mass concentration (μg/m³),Mass concentration (μg/m³),Mass concentration (μg/m³)
DateTimeUTC,F1_M11,P_M11,Q1_M11,Q2_M11,T1_M11,T2_M11,T3_M11,T4_M11,T5_M11,U1_M11,ZSPAN_M11,X0_M11,X2_M11,X1_M11
2022-05-31 12:00:00,,0824.9,5.01,0.00,23.9,22.8,00.0,32.9,25.8,15.4,0000.0,0001.84,0001.06,0000.76
2022-05-31 12:01:00,,0824.9,4.99,0.00,23.9,22.8,00.0,32.9,25.8,15.4,0000.0,0001.98,0001.12,0000.75
2022-05-31 12:02:00,,0824.9,5.01,0.00,23.9,22.8,00.0,32.9,25.8,15.4,0000.0,0002.08,0001.12,0000.75
2022-05-31 12:03:00,,0824.9,5.00,0.00,23.9,22.8,00.0,32.9,25.8,15.3,0000.0,0002.35,0001.12,0000.75
2022-05-31 12:04:00,,0824.9,5.01,0.00,23.9,22.8,00.0,32.9,25.9,15.3,0000.0,0002.41,0001.14,0000.76
2022-05-31 12:05:00,,0824.9,4.99,0.00,23.9,22.8,00.0,32.9,25.9,15.4,0000.0,0002.54,0001.19,0000.75
2022-05-31 12:06:00,,0825.0,4.99,0.00,23.9,22.8,00.0,32.9,25.8,15.4,0000.0,0002.68,0001.17,0000.75
2022-05-31 12:07:00,,0825.0,5.00,0.00,23.9,22.8,00.0,32.9,25.8,15.3,0000.0,0002.84,0001.14,0000.74
2022-05-31 12:08:00,,0825.0,4.99,0.00,23.9,22.8,00.0,32.9,25.8,15.3,0000.0,0002.83,0001.13,0000.73
2022-05-31 12:09:00,,0825.1,5.00,0.00,23.9,22.8,00.0,32.9,25.9,15.2,0000.0,0002.91,0001.16,0000.73
2022-05-31 12:10:00,,0825.1,5.02,0.00,23.9,22.9,00.0,32.9,25.9,15.1,0000.0,0002.85,0001.14,0000.72
2022-05-31 12:11:00,,0825.2,4.99,0.00,23.9,22.9,00.0,32.9,25.9,15.2,0000.0,0002.74,0001.13,0000.72
2022-05-31 12:12:00,,0825.2,5.01,0.00,23.9,22.9,00.0,32.9,25.9,15.1,0000.0,0002.67,0001.08,0000.73
2022-05-31 12:13:00,,0825.2,4.99,0.00,23.9,22.9,00.0,32.9,25.9,15.1,0000.0,0002.62,0001.06,0000.72
2022-05-31 12:14:00,,0825.2,5.00,0.00,23.9,22.9,00.0,32.9,25.9,15.1,0000.0,0002.36,0001.06,0000.72
2022-05-31 12:15:00,,0825.2,5.00,0.00,23.9,22.9,00.0,32.9,25.9,15.2,0000.0,0002.32,0001.07,0000.72
2022-05-31 12:16:00,,0825.2,4.99,0.00,23.9,22.9,00.0,32.9,25.9,15.2,0000.0,0002.90,0001.05,0000.71
2022-05-31 12:17:00,,0825.2,5.00,0.00,23.9,22.9,00.0,32.9,25.9,15.3,0000.0,0002.97,0001.09,0000.72
2022-05-31 12:18:00,,0825.2,5.01,0.00,23.9,22.9,00.0,32.9,25.9,15.3,0000.0,0002.70,0001.08,0000.72
2022-05-31 12:19:00,,0825.3,4.98,0.00,24.0,22.9,00.0,32.9,25.9,15.1,0000.0,0002.65,0001.05,0000.72
2022-05-31 12:20:00,,0825.3,5.01,0.00,24.0,22.9,00.0,32.9,25.9,15.2,0000.0,0002.50,0001.00,0000.71
2022-05-31 12:21:00,,0825.3,4.99,0.00,24.0,22.9,00.0,32.9,25.9,15.1,0000.0,0002.55,0001.01,0000.70
2022-05-31 12:22:00,,0825.3,5.01,0.00,24.0,23.0,00.0,32.9,25.9,15.2,0000.0,0002.62,0001.02,0000.69
2022-05-31 12:23:00,,0825.3,5.00,0.00,24.0,23.0,00.0,32.9,25.9,15.1,0000.0,0002.56,0001.03,0000.69
2022-05-31 12:24:00,,0825.3,5.01,0.00,24.0,22.9,00.0,32.9,25.9,15.0,0000.0,0002.52,0001.03,0000.70
2022-05-31 12:25:00,,0825.4,4.99,0.00,24.0,22.9,00.0,32.9,25.9,14.9,0000.0,0002.53,0001.01,0000.70
2022-05-31 12:26:00,,0825.4,5.01,0.00,24.0,23.0,00.0,32.9,25.9,14.8,0000.0,0002.54,0001.01,0000.70
2022-05-31 12:27:00,,0825.4,5.00,0.00,24.0,23.0,00.0,32.9,25.9,14.9,0000.0,0002.23,0000.97,0000.69
2022-05-31 12:28:00,,0825.4,5.00,0.00,24.0,23.0,00.0,32.9,25.9,15.0,0000.0,0001.63,0000.95,0000.68
2022-05-31 12:29:00,,0825.4,5.02,0.00,24.0,23.0,00.0,32.9,25.9,14.9,0000.0,0001.82,0001.04,0000.69
2022-05-31 12:30:00,,0825.5,4.99,0.00,24.0,23.0,00.0,32.9,25.9,14.9,0000.0,0001.94,0001.08,0000.69
2022-05-31 12:31:00,,0825.5,5.01,0.00,24.0,23.0,00.0,32.9,25.9,15.0,0000.0,0001.97,0001.09,0000.70
2022-05-31 12:32:00,,0825.5,5.00,0.00,24.0,23.0,00.0,32.9,25.9,15.0,0000.0,0002.04,0001.11,0000.70
2022-05-31 12:33:00,,0825.5,4.99,0.00,24.0,23.0,00.0,32.9,25.9,15.3,0000.0,0002.00,0001.09,0000.70
2022-05-31 12:34:00,,0825.5,5.01,0.00,24.0,23.0,00.0,32.9,26.0,15.4,0000.0,0001.89,0001.06,0000.70
2022-05-31 12:35:00,,0825.5,4.99,0.00,24.0,23.0,00.0,32.9,26.0,15.1,0000.0,0001.84,0001.03,0000.69
2022-05-31 12:36:00,,0825.5,5.00,0.00,24.0,23.0,00.0,32.9,26.0,15.1,0000.0,0001.85,0001.05,0000.68
2022-05-31 12:37:00,,0825.5,5.00,0.00,24.0,23.0,00.0,32.9,26.0,15.2,0000.0,0001.80,0001.05,0000.68
2022-05-31 12:38:00,,0825.5,5.00,0.00,24.0,23.0,00.0,32.9,26.0,15.2,0000.0,0001.82,0001.06,0000.69
2022-05-31 12:39:00,,0825.5,5.00,0.00,24.0,23.0,00.0,32.9,26.0,15.3,0000.0,0001.78,0001.05,0000.69
2022-05-31 12:40:00,,0825.5,5.00,0.00,24.0,23.0,00.0,32.9,26.0,15.4,0000.0,0001.58,0000.95,0000.68
2022-05-31 12:41:00,,0825.5,4.99,0.00,24.0,23.0,00.0,32.9,26.0,15.3,0000.0,0001.61,0000.94,0000.67
2022-05-31 12:42:00,,0825.5,5.00,0.00,24.0,23.0,00.0,32.9,26.0,15.4,0000.0,0002.14,0000.96,0000.67
2022-05-31 12:43:00,,0825.6,5.01,0.00,24.0,23.0,00.0,32.9,26.0,16.1,0000.0,0002.11,0000.96,0000.67
2022-05-31 12:44:00,,0825.6,5.00,0.00,24.0,23.0,00.0,32.9,26.0,16.3,0000.0,0002.41,0000.98,0000.67
2022-05-31 12:45:00,,0825.5,5.00,0.00,24.0,23.0,00.0,32.9,26.0,16.6,0000.0,0002.57,0001.02,0000.68
2022-05-31 12:46:00,,0825.6,5.00,0.00,24.0,23.1,00.0,32.9,26.0,16.5,0000.0,0002.62,0001.04,0000.68
2022-05-31 12:47:00,,0825.6,4.99,0.00,24.1,23.1,00.0,32.9,26.0,16.7,0000.0,0002.56,0001.03,0000.69
2022-05-31 12:48:00,,0825.7,5.01,0.00,24.1,23.1,00.0,32.9,26.0,16.7,0000.0,0002.53,0001.01,0000.69
2022-05-31 12:49:00,,0825.6,5.00,0.00,24.1,23.1,00.0,33.0,26.0,16.3,0000.0,0002.52,0001.00,0000.68
2022-05-31 12:50:00,,0825.7,5.01,0.00,24.1,23.1,00.0,33.0,26.0,16.3,0000.0,0002.56,0001.00,0000.68
2022-05-31 12:51:00,,0825.7,4.99,0.00,24.1,23.1,00.0,33.0,26.0,16.6,0000.0,0002.73,0001.05,0000.69
2022-05-31 12:52:00,,0825.6,5.01,0.00,24.1,23.1,00.0,33.0,26.0,16.8,0000.0,0002.72,0001.02,0000.69
2022-05-31 12:53:00,,0825.6,4.99,0.00,24.1,23.1,00.0,33.0,26.0,17.0,0000.0,0002.30,0001.04,0000.69
2022-05-31 12:54:00,,0825.6,5.01,0.00,24.1,23.1,00.0,33.0,26.0,17.1,0000.0,0002.34,0001.05,0000.69
2022-05-31 12:55:00,,0825.6,4.99,0.00,24.1,23.1,00.0,33.0,26.1,17.4,0000.0,0002.03,0001.05,0000.69
2022-05-31 12:56:00,,0825.6,5.01,0.00,24.1,23.1,00.0,33.0,26.1,17.7,0000.0,0001.90,0001.02,0000.68
2022-05-31 12:57:00,,0825.7,4.99,0.00,24.1,23.1,00.0,33.0,26.1,18.0,0000.0,0001.92,0001.04,0000.68
2022-05-31 12:58:00,,0825.6,5.00,0.00,24.1,23.1,00.0,33.0,26.1,18.0,0000.0,0002.03,0001.04,0000.67
2022-05-31 12:59:00,,0825.7,4.98,0.00,24.1,23.2,00.0,33.0,26.1,17.7,0000.0,0002.08,0001.05,0000.68
